Weather Roundup
Issued by NWS

Home | Current Version | Previous Version | Text Only | Print | Product List | Glossary On
Versions: 1 2 3 4 5 6 7 8 9 10 11 12 13 14 15 16 17 18 19 20 21 22 23 24 25 26 27 28 29 30 31 32 33 34 35 36 37 38 39 40 41 42 43 44 45 46 47 48 49 50
576
NZUS93 KARX 280410
HRRWXR

CURRENT HOURLY OBSERVATIONS ACROSS
MUCH OF THE UPPER MISSISSIPPI VALLEY
NATIONAL WEATHER SERVICE LA CROSSE WI
1100 PM CDT FRI MAY 27 2016


...SOUTHEAST MINNESOTA...


CITY           SKY/WX    TMP DP  RH WIND       PRES   REMARKS
ROCHESTER      CLOUDY    63  63 100 CALM      29.77S
ROCHESTER/MAYO FAIR      64  64 100 CALM      29.77S
WINONA         MOCLDY    70  66  88 CALM      29.75S
AUSTIN         CLOUDY    63  61  94 CALM      29.76F
ALBERT LEA     PTCLDY    64  63  94 CALM      29.76F
DODGE CENTER   CLOUDY    61  59  94 CALM      29.77F FOG
PRESTON        PTCLDY    63  61  94 N3        29.77F
OWATONNA       PTCLDY    63  61  94 CALM      29.78R
FARIBAULT      CLOUDY    61  59  94 CALM      29.78R
$$

...ELSEWHERE IN MINNESOTA...


CITY           SKY/WX    TMP DP  RH WIND       PRES   REMARKS
MINNEAPOLIS    CLOUDY    64  60  87 N3        29.75S
INTNL FALLS    CLOUDY    61  54  77 NE5       29.86S
DULUTH         LGT RAIN  53  51  93 E13       29.81S FOG
RED WING       CLOUDY    63  61  94 CALM      29.75R FOG
REDWOOD FALLS  CLOUDY    63  60  90 NE5       29.75S
MANKATO        CLOUDY    64  59  82 E6        29.76S
WORTHINGTON    CLOUDY    65  60  84 NE7       29.77R
FAIRMONT       CLOUDY    66  61  82 E6        29.76R
$$

...SOUTHWEST WISCONSIN...


CITY           SKY/WX    TMP DP  RH WIND       PRES   REMARKS
LA CROSSE      MOCLDY    68  67  96 CALM      29.75R FOG
PRAIRIE DU CHI MOCLDY    67  64  89 CALM      29.76S
BOSCOBEL       CLOUDY    66  65  96 CALM      29.77R
LONE ROCK      MOCLDY    71  66  84 SE6       29.78R
PLATTEVILLE    CLOUDY    71  68  92 SE7       29.79R
FORT MC COY    PTCLDY    64  64 100 CALM      29.77F FOG
CAMP DOUGLAS   PTCLDY    68 N/A N/A SE5       29.77S
MAUSTON-NEW LI PTCLDY    68  67  98 SE3       29.77S
VIROQUA        FAIR      65  65 100 SE5       29.78S
WIS DELLS      PTCLDY    69  65  88 S7        29.80R
$$

...ELSEWHERE IN WISCONSIN...


CITY           SKY/WX    TMP DP  RH WIND       PRES   REMARKS
MILWAUKEE      CLOUDY    69  64  84 S13       29.84F
MADISON        MOCLDY    71  66  84 S7        29.80R
GREEN BAY      CLOUDY    65  64  97 SE5       29.82S
EAU CLAIRE     CLOUDY    65  64  97 CALM      29.75R
BLACK RVR FLS  FOG       64  64 100 CALM      29.75F VSB 1
MEDFORD        CLOUDY    65  65 100 SE10G17   29.78S
WAUSAU         CLOUDY    68  65  90 SE7       29.78S
WIS RAPIDS     LGT RAIN  67  64  90 SE7       29.80S FOG
MARSHFIELD     MOCLDY    68  65  90 SE9       29.77F
RICE LAKE      CLOUDY    60  58  95 CALM      29.77S
$$

...NORTHEAST IOWA...


CITY           SKY/WX    TMP DP  RH WIND       PRES   REMARKS
WATERLOO       CLOUDY    68  64  87 CALM      29.75R
DUBUQUE        CLOUDY    71  67  87 S16       29.78S
DECORAH        CLOUDY    66  66 100 E5        29.75F FOG
MASON CITY     CLOUDY    64  62  93 CALM      29.77S
CHARLES CITY   CLOUDY    66  66 100 N3        29.76R
OELWEIN        CLOUDY    68  68 100 CALM      29.77S
$$

...ELSEWHERE IN IOWA...


CITY           SKY/WX    TMP DP  RH WIND       PRES   REMARKS
DES MOINES     LGT RAIN  69  64  84 S3        29.76S
IOWA CITY      LGT RAIN  66  64  93 NW3       29.77F
FORT DODGE     CLOUDY    66  61  82 SE5       29.76R
MARSHALLTOWN   CLOUDY    68  64  87 CALM      29.76R
CEDAR RAPIDS   RAIN      64  64 100 S5        29.77R FOG
$$

...NORTHERN ILLINOIS...


CITY           SKY/WX    TMP DP  RH WIND       PRES   REMARKS
CHICAGO-OHARE  LGT RAIN  69  65  86 S15G22    29.88R
CHICAGO-MIDWAY LGT RAIN  71  66  84 S13G23    29.88S
MOLINE         CLOUDY    74  67  78 SE10      29.76F
ROCKFORD       CLOUDY    73  66  78 S18       29.84R
PEORIA         CLOUDY    70  67  90 S12       29.83S
$$

NOTE: "FAIR" INDICATES FEW OR NO CLOUDS BELOW 12,000 FEET WITH NO
SIGNIFICANT WEATHER AND/OR OBSTRUCTIONS TO VISIBILITY. WIND
SPEEDS ARE IN MILES-PER-HOUR.




USA.gov is the U.S. government's official web portal to all federal, state and local government web resources and services.